Theta_e
339 340 341 343 343 338 339 339 338 337 340 342 339 340 341 341 339 337 334 337 336 336 336 336 336 336 334 332 334 333 338 340 337 338 343 344 341 340 342 341 342 341 338 338 337 336 336 335 335 334 332 333 334 336 335 334 333 332 331 332 330 330 329 329 329 329 328 327 326 327 327 326 326 326 325 326 326 325 328 328 327 326 325 326 325
344 343 340 343 343 345 343 343 339 338 336 337 342 340 340 339 339 337 335 336 335 335 335 336 333 334 332 333 333 334 336 337 337 337 338 341 344 340 342 342 342 342 340 338 336 336 335 335 334 334 332 334 334 338 337 335 334 333 333 331 330 330 329 328 327 328 328 327 327 327 327 326 326 326 325 325 326 325 325 325 325 325 324 324 324
344 342 341 341 344 344 344 344 343 340 338 339 339 340 341 338 337 337 336 334 340 336 334 335 333 332 332 331 331 335 334 333 337 337 341 343 343 340 340 342 341 341 341 340 339 336 335 334 335 335 334 333 332 336 337 337 335 335 334 332 331 331 330 328 328 327 327 327 327 327 326 326 325 326 325 325 325 325 325 325 324 325 324 324 324
344 342 340 340 341 341 342 340 340 341 339 336 338 337 338 339 338 337 336 337 338 337 334 337 334 331 330 330 332 334 333 333 334 336 336 342 342 343 340 340 341 341 339 340 339 338 336 334 332 334 334 333 332 330 334 338 337 336 335 333 332 331 331 329 328 329 327 328 327 327 326 326 326 325 325 324 325 325 324 324 324 324 324 324 324
344 343 341 341 342 342 342 340 340 340 339 339 338 338 337 340 339 337 334 336 335 336 334 334 334 335 333 330 333 331 331 331 332 336 335 338 340 342 342 339 339 341 340 340 340 338 339 339 334 332 335 332 332 332 331 329 333 337 336 334 333 332 331 330 329 329 328 327 328 327 327 326 326 326 324 324 324 324 324 324 324 324 324 323 323
342 342 342 341 342 342 341 339 340 341 340 339 338 337 337 336 337 335 335 337 334 335 331 333 331 334 333 332 331 335 334 331 333 335 336 336 341 339 342 341 339 339 338 340 339 339 339 337 335 332 332 332 332 331 333 331 329 331 337 336 334 333 333 331 330 329 328 328 328 327 327 327 326 326 325 324 324 324 323 324 324 324 323 324 323
342 341 340 340 339 339 341 339 342 341 337 337 336 335 335 336 337 335 335 336 336 335 333 332 335 329 333 336 332 331 334 334 333 333 334 333 339 339 342 341 343 341 338 336 341 339 339 339 336 334 332 333 332 331 331 332 331 329 335 337 336 334 334 332 331 330 329 329 329 328 328 328 326 326 326 325 324 324 324 323 323 323 323 323 323
342 340 339 338 337 337 336 342 341 339 337 336 337 336 336 336 335 334 333 334 334 332 334 333 333 333 333 334 337 336 333 333 334 331 333 336 333 339 339 341 340 339 338 342 337 338 338 338 340 338 335 334 333 333 332 332 332 332 331 335 336 335 334 333 332 332 331 330 329 329 329 328 327 327 326 326 325 324 324 323 323 323 323 323 322
341 340 339 338 337 337 337 338 342 338 335 338 336 338 337 336 336 335 335 334 335 334 332 333 333 334 334 334 335 336 336 337 337 335 335 335 335 334 337 336 339 339 341 341 338 338 338 338 338 339 338 337 336 335 332 333 332 332 331 333 336 336 335 335 334 333 332 331 331 329 329 328 328 327 326 326 325 325 324 324 324 323 323 322 322
341 341 341 340 339 338 337 338 338 337 336 336 338 338 337 337 335 337 335 333 331 331 332 334 333 334 335 336 336 335 336 337 338 337 334 334 340 338 340 340 338 338 339 337 337 339 338 337 338 338 339 338 336 336 334 334 334 333 332 333 335 336 336 336 335 334 334 333 332 331 329 329 328 328 327 326 326 325 325 325 324 323 323 322 322
341 341 342 338 338 338 338 337 335 335 335 335 337 339 338 336 335 335 334 332 332 332 334 334 333 332 333 334 335 334 337 337 338 336 337 338 339 337 337 339 338 338 337 336 339 337 336 338 335 335 337 336 337 337 336 336 336 337 337 339 337 334 336 336 335 335 335 335 334 333 331 329 329 328 327 327 327 325 326 325 325 324 323 323 322
338 340 340 339 339 338 338 339 335 335 334 333 336 337 337 335 334 333 330 332 335 331 335 336 333 334 330 335 336 334 332 334 336 336 337 338 340 337 337 337 337 336 335 337 338 336 336 338 339 337 338 335 334 334 334 336 336 337 336 337 337 337 336 336 335 334 336 335 335 334 333 331 330 330 329 328 327 327 326 326 325 325 324 323 323
336 337 337 337 338 339 337 337 337 335 334 335 336 338 339 337 335 334 330 328 330 333 334 336 333 328 332 331 331 333 335 333 334 334 332 335 336 341 339 338 338 336 334 336 334 336 337 337 336 338 337 336 334 333 331 331 332 334 335 336 336 336 336 337 336 336 336 335 335 335 334 332 331 330 329 329 328 327 327 326 325 325 324 324 323
336 337 337 337 340 337 340 338 337 336 336 335 335 333 335 335 336 335 333 332 329 333 332 333 328 325 323 325 327 332 332 332 331 333 333 334 335 336 336 336 337 336 337 333 337 337 336 335 336 336 336 338 336 336 335 334 334 332 333 334 335 336 336 336 336 336 335 335 336 335 336 334 332 331 331 330 329 328 328 327 326 325 325 324 323
334 334 335 335 335 335 337 339 337 337 336 335 335 335 335 332 331 332 332 332 332 335 334 334 327 330 329 325 321 320 325 331 331 331 333 334 337 334 334 331 333 334 337 333 334 335 335 334 334 335 335 336 335 335 336 335 336 333 332 334 335 336 336 337 337 337 336 336 335 336 336 335 334 332 332 331 330 330 328 328 327 326 326 325 324
332 331 331 333 334 333 333 334 338 337 335 335 334 334 335 334 335 335 335 330 327 330 333 333 330 329 319 321 321 318 317 321 326 330 332 333 332 331 332 333 336 336 337 334 334 333 334 335 334 336 337 336 335 336 335 337 334 332 330 332 331 332 335 337 337 336 337 336 336 336 336 336 335 334 333 333 332 331 330 328 328 327 326 326 325
332 331 328 329 331 333 332 332 333 338 336 335 333 333 333 335 334 333 331 331 329 330 332 333 332 333 329 322 320 318 317 322 325 326 329 327 329 332 334 332 333 334 332 333 334 334 334 334 335 334 335 337 334 335 332 335 336 337 335 330 330 331 332 333 334 337 337 337 336 335 334 334 333 333 334 333 333 331 331 330 329 328 327 326 326
331 331 330 330 330 331 333 330 333 333 334 335 335 334 334 333 334 334 333 332 331 329 328 331 334 333 333 330 329 323 320 323 322 316 328 330 331 328 330 331 332 332 334 332 331 332 334 333 333 334 332 332 332 334 336 336 335 332 332 327 324 323 323 326 333 335 337 337 336 334 332 332 332 332 334 334 333 332 331 331 330 329 328 328 327
332 331 332 332 333 333 333 332 331 331 331 331 331 330 329 328 333 333 333 333 333 329 328 329 331 331 332 332 330 329 329 324 319 322 319 324 328 328 328 329 331 332 330 330 331 334 334 333 332 333 332 332 333 334 334 332 328 327 325 322 319 317 316 317 322 329 335 335 336 333 334 332 333 333 334 334 334 333 332 332 331 331 330 329 329
330 329 331 330 332 332 332 332 330 329 327 328 328 328 329 330 332 332 332 334 333 330 329 329 326 328 331 331 330 331 330 329 328 322 319 317 320 326 328 329 332 329 331 328 330 333 332 332 332 332 334 333 332 334 332 331 329 326 322 318 317 316 314 313 314 315 325 334 334 334 333 333 334 333 332 332 334 334 333 333 332 332 331 331 330
329 329 329 329 330 332 331 330 330 329 328 327 329 329 331 331 334 334 335 334 333 333 330 329 328 328 330 330 329 327 329 329 328 327 322 319 319 321 321 326 327 330 330 331 331 332 330 330 331 331 330 331 331 330 327 325 323 319 317 318 316 314 313 311 310 312 313 326 333 333 333 333 335 334 332 332 332 332 333 332 332 332 333 332 332
330 329 329 328 328 329 329 329 330 327 325 326 329 330 330 330 331 332 335 333 334 333 331 332 331 331 328 326 325 326 326 325 327 324 325 324 320 321 320 321 318 323 327 328 329 329 328 329 328 327 328 327 326 323 320 319 319 318 316 315 316 314 312 310 307 311 315 319 329 333 333 333 334 333 333 333 334 332 329 330 332 332 333 334 333
328 329 327 328 329 329 328 328 326 326 326 326 327 326 328 328 329 329 330 331 332 333 333 333 332 330 330 328 325 324 324 323 321 323 323 320 319 318 320 319 318 318 321 323 324 323 323 325 325 326 327 326 322 319 318 317 316 315 313 313 314 314 313 310 307 307 311 318 322 330 333 333 333 333 332 332 329 328 328 331 333 333 332 333 332
326 324 326 327 328 327 327 326 327 328 327 328 326 325 325 324 325 327 327 328 329 327 328 328 330 330 330 329 328 328 327 324 328 325 325 320 322 317 316 318 318 317 319 322 320 319 320 320 321 323 322 321 319 319 318 316 315 314 313 311 311 311 311 311 308 307 305 310 314 321 327 329 329 329 329 329 329 328 328 329 328 327 328 329 329
324 324 326 327 328 327 326 324 326 328 327 325 326 325 323 323 323 323 324 324 324 326 325 327 326 325 324 325 324 323 323 324 326 328 328 325 326 316 317 319 316 316 317 317 316 318 319 319 321 320 321 321 319 318 318 318 316 316 313 309 309 308 308 309 309 307 306 305 308 312 315 320 323 324 323 322 322 322 321 318 313 311 312 314 318
322 321 322 323 323 324 324 324 325 325 325 326 326 325 324 320 323 323 322 324 324 324 323 324 324 323 322 319 319 319 320 322 323 324 323 323 321 319 318 318 318 314 316 315 316 314 315 318 320 321 320 321 321 321 319 315 315 314 313 311 308 307 307 307 307 306 304 303 303 306 308 310 313 315 315 314 314 313 312 309 309 310 310 311 312
322 323 323 323 323 323 322 322 322 324 324 324 324 324 323 320 321 322 321 321 320 319 320 321 320 321 321 319 318 317 317 316 318 320 320 322 320 319 317 312 312 313 312 313 312 311 311 314 318 319 319 320 320 319 318 318 316 315 315 313 309 305 305 306 306 306 305 303 302 302 303 305 306 307 308 309 308 309 310 310 309 307 308 310 312
324 322 322 321 320 321 320 320 321 322 323 323 322 322 323 321 320 321 319 319 321 320 319 320 321 321 320 319 317 315 318 317 317 317 318 321 321 320 318 315 311 307 311 311 311 309 312 310 313 316 317 317 316 317 316 316 317 314 317 317 313 309 304 304 304 304 304 303 303 302 302 302 304 306 307 307 308 308 308 308 308 307 307 308 310
323 323 322 322 322 321 320 320 321 321 321 321 321 321 321 320 319 318 318 319 319 318 320 320 320 321 321 321 319 318 318 320 320 319 320 320 321 320 320 317 315 310 308 309 309 309 309 310 307 309 313 314 315 316 315 313 313 315 318 316 314 311 304 303 303 303 303 302 302 302 301 302 304 306 307 306 307 307 306 306 306 306 307 307 306
323 323 323 322 322 322 321 321 321 321 321 321 320 321 321 319 319 318 318 320 319 320 320 319 320 321 321 320 320 319 320 320 319 321 319 318 316 317 317 318 317 315 311 309 309 311 310 311 309 307 309 311 312 314 313 311 312 313 316 315 312 309 304 304 302 302 301 302 301 301 301 302 302 304 305 305 305 305 304 305 306 306 306 306 305
323 323 322 321 322 323 323 321 322 321 321 321 321 320 319 318 319 319 320 320 319 318 320 320 320 321 320 319 319 318 320 320 320 320 321 320 317 315 314 318 319 320 315 313 310 312 313 309 308 309 308 309 309 311 310 310 309 312 315 316 311 308 306 304 302 302 302 301 301 301 304 303 303 304 303 304 303 304 303 303 305 305 305 304 303
323 323 321 321 322 322 322 322 322 322 321 321 321 320 321 320 319 318 319 319 317 318 318 319 317 319 318 317 318 319 320 317 317 318 316 317 318 315 316 316 315 318 317 315 312 308 311 309 308 307 309 311 311 311 311 308 308 309 315 313 314 308 309 307 303 303 302 302 300 302 302 303 302 302 302 301 300 302 302 301 303 303 302 302 302
323 322 321 321 321 322 321 321 321 323 322 322 323 322 321 320 319 319 319 317 315 315 315 316 316 317 316 315 315 317 319 318 316 316 314 314 315 316 316 315 315 317 316 315 311 308 310 312 310 308 310 312 309 311 310 313 314 312 310 313 314 315 313 311 307 302 302 302 301 300 301 301 300 301 300 298 299 299 301 301 301 301 301 300 300
322 321 320 321 322 322 320 320 321 320 322 322 323 323 320 320 320 320 319 318 318 317 318 316 315 316 318 317 315 317 318 317 319 316 315 315 314 313 314 315 313 315 317 314 311 309 307 310 309 310 310 312 309 311 313 313 313 313 310 311 312 311 311 313 311 307 301 302 301 299 301 301 300 300 299 299 299 299 300 300 299 298 299 298 299
322 321 320 321 321 320 320 321 320 321 321 321 324 323 322 321 320 321 322 320 319 318 318 316 316 317 318 317 317 317 318 318 318 317 317 317 316 315 316 316 316 316 315 316 314 311 310 309 312 309 312 312 313 310 311 312 313 312 311 312 312 311 312 312 312 308 301 301 300 302 301 300 301 300 299 299 299 299 299 299 299 299 298 299 299
322 322 322 320 320 320 320 320 320 321 321 322 322 322 322 322 321 321 322 323 321 321 319 317 317 317 318 318 318 317 318 317 318 317 318 318 317 317 317 318 318 316 318 317 316 314 312 310 312 309 312 313 311 312 312 312 311 311 312 312 312 312 312 312 313 310 302 302 302 303 303 304 301 301 300 298 299 300 299 298 298 299 299 300 300
323 323 323 321 320 320 321 319 320 320 321 322 322 323 324 324 323 323 322 322 322 321 322 322 322 321 320 319 319 319 317 318 316 317 318 318 315 316 316 316 316 316 317 316 316 315 314 313 312 313 314 312 311 313 312 311 312 313 314 313 312 312 313 313 313 312 305 302 302 302 302 301 301 301 299 300 300 299 299 299 299 299 300 300 300
322 323 322 321 320 320 320 320 320 320 321 322 323 323 324 325 324 324 324 324 323 322 323 323 321 322 322 321 320 321 319 318 318 318 318 317 315 317 316 312 314 316 317 316 316 316 314 313 313 313 314 312 312 314 313 312 312 311 311 312 312 313 312 312 313 312 312 310 311 309 304 302 301 299 302 301 299 298 298 299 299 300 301 300 299
322 322 322 321 322 321 320 320 320 322 322 322 323 324 326 325 325 324 325 325 324 324 323 323 322 322 322 322 322 322 321 320 320 320 318 317 318 315 317 314 313 316 316 315 315 316 315 314 314 313 312 313 312 311 312 314 313 312 311 310 310 311 312 311 310 311 312 312 308 303 304 304 303 305 302 299 299 300 300 299 299 300 300 299 298
322 321 321 320 321 320 323 323 323 323 322 323 324 325 326 326 326 326 326 325 324 323 324 323 325 323 323 323 323 322 321 320 320 320 320 319 317 315 315 314 314 314 314 313 313 314 314 314 312 312 312 311 312 312 312 312 311 311 311 310 308 309 310 311 311 309 309 311 310 310 306 304 303 301 299 300 300 300 299 299 300 301 301 299 297
323 322 321 322 323 323 323 325 324 325 325 326 326 326 325 323 325 324 325 325 324 324 325 325 325 325 325 325 324 324 324 323 314 314 315 315 318 315 315 314 313 313 313 313 314 312 314 313 312 313 311 310 313 312 310 310 309 308 310 311 309 309 309 308 309 310 309 308 309 308 307 308 305 306 308 309 309 302 301 300 303 302 300 297 297
325 326 322 322 321 324 322 323 325 327 327 328 326 313 314 327 326 325 326 326 326 326 325 324 325 324 324 325 325 323 315 312 309 305 303 307 310 316 315 315 313 312 312 312 311 313 313 312 311 311 310 310 310 311 310 311 311 311 309 309 307 307 308 307 308 309 309 309 307 306 306 307 306 306 307 307 309 305 308 308 307 305 299 297 298
324 322 324 324 322 326 326 323 325 326 327 322 304 307 307 306 322 327 326 326 324 325 325 323 322 324 324 323 325 321 317 313 313 300 301 301 303 302 296 297 303 319 314 311 312 313 311 312 312 311 310 310 310 312 311 310 311 309 307 308 307 307 305 303 301 306 310 308 305 303 303 306 306 305 305 306 307 309 309 310 298 300 298 298 297
321 322 321 320 321 320 322 323 324 323 321 306 299 303 303 301 304 322 326 326 322 321 321 320 321 322 321 322 324 324 323 322 321 315 307 299 299 295 293 293 292 291 294 311 311 311 312 310 310 311 310 310 310 311 310 310 308 307 307 307 307 305 304 303 302 301 306 308 303 302 302 306 307 305 305 305 307 309 309 304 296 299 298 298 297
322 321 321 323 324 324 325 324 324 323 323 301 295 297 297 297 296 304 324 316 319 317 317 321 321 323 322 323 322 323 324 318 320 321 319 311 296 293 293 293 294 293 291 291 294 308 313 311 310 309 309 309 308 309 310 309 309 306 307 305 305 305 304 302 302 302 304 306 304 302 302 305 306 305 304 306 306 307 307 302 300 300 299 298 298
323 324 325 325 325 325 325 324 325 324 326 298 296 295 298 294 295 300 324 322 320 318 319 321 321 322 322 322 321 323 322 321 321 321 320 316 310 305 306 307 306 301 293 293 293 294 301 310 311 309 311 312 309 310 310 309 307 305 304 303 305 303 302 302 303 303 305 307 304 303 302 304 306 304 302 304 306 307 307 304 297 299 298 298 297
323 323 324 324 324 324 324 324 323 322 321 293 295 294 295 293 294 296 321 323 320 319 319 321 320 320 319 319 319 318 321 321 321 318 318 316 313 310 309 309 309 306 308 308 310 311 310 310 311 310 311 311 311 310 309 308 307 305 304 303 303 303 303 304 304 305 306 307 306 303 299 302 305 303 303 304 305 305 306 302 299 298 298 298 298
324 324 324 324 323 323 324 323 322 323 314 292 293 292 293 293 292 310 322 322 319 318 318 318 317 318 319 319 318 316 317 320 305 300 308 317 314 311 310 309 309 309 308 295 292 294 302 307 308 307 306 302 296 303 301 301 302 303 302 302 302 301 299 299 298 301 300 304 305 302 300 300 304 301 301 304 304 303 304 305 301 300 298 298 297
320 320 321 320 320 321 321 323 321 322 320 297 293 292 292 293 296 318 320 316 315 316 317 315 318 320 318 317 321 317 319 316 299 297 298 305 314 311 310 309 310 310 306 302 294 290 291 290 289 289 289 288 290 290 289 289 297 298 298 297 297 299 297 295 296 297 298 302 303 303 301 298 301 301 301 302 302 302 302 303 304 301 299 298 297
318 319 320 318 320 321 319 320 321 322 322 303 292 293 293 292 300 319 317 315 316 316 316 317 317 313 309 300 311 318 318 312 293 296 296 306 313 311 311 310 309 309 307 306 304 302 290 291 290 290 290 291 291 290 291 291 289 294 298 296 298 298 297 297 295 298 299 300 301 304 300 299 301 301 299 300 301 301 302 303 303 304 296 297 296
317 318 318 317 318 318 319 318 316 318 321 305 291 292 292 294 298 317 318 315 316 316 315 315 315 314 311 304 297 304 308 300 291 294 294 302 314 313 312 311 308 308 309 307 307 306 305 304 303 301 299 295 297 300 301 291 291 295 300 300 300 298 297 297 297 297 296 298 302 304 298 298 299 299 298 296 295 299 301 301 302 303 303 303 303
Wind_Speed
1 1 4 4 5 7 5 5 2 3 3 2 2 4 4 5 4 7 9 4 5 4 3 5 3 4 4 6 6 6 4 3 5 5 9 3 7 10 11 9 6 3 6 8 8 6 6 6 7 5 5 6 5 6 6 6 6 6 6 6 6 5 5 5 4 5 5 5 4 4 5 5 6 6 5 6 7 6 9 9 9 9 9 9 9
4 3 1 3 2 3 5 5 6 4 1 4 3 4 4 5 5 8 8 6 4 5 4 4 5 5 5 5 5 6 6 4 5 5 6 4 4 9 12 9 6 4 3 6 7 7 7 6 7 6 4 5 5 8 6 7 6 5 6 6 6 5 4 4 4 4 4 4 4 4 4 4 5 5 4 4 6 6 8 8 8 7 7 8 8
2 2 3 1 1 1 1 2 3 4 4 3 2 3 2 4 5 6 8 8 7 4 4 4 5 5 5 5 7 4 5 5 5 6 11 6 6 8 10 9 9 7 5 3 2 7 6 6 9 7 6 6 5 8 9 7 6 6 6 6 5 5 4 4 4 3 4 3 3 3 3 3 4 4 4 5 5 5 6 6 6 7 7 7 7
2 3 3 3 3 3 1 1 1 2 2 1 2 2 3 4 5 5 5 10 12 1 4 6 5 5 5 6 5 4 4 6 4 4 7 4 7 5 7 9 9 9 7 5 5 4 4 4 3 7 5 5 5 2 6 7 7 6 6 6 6 5 4 4 4 4 3 4 3 3 3 3 3 3 3 3 4 5 5 6 6 6 7 6 7
1 1 1 3 3 3 3 2 1 2 1 0 1 1 1 3 4 2 2 5 8 10 7 4 4 2 5 4 4 6 7 5 5 5 7 10 3 6 6 8 8 7 7 7 6 5 5 4 5 4 6 5 4 5 3 1 6 8 6 7 7 6 5 4 4 4 3 3 3 3 3 3 2 3 3 3 3 4 4 3 5 5 5 5 5
2 3 3 3 4 3 3 2 2 3 1 1 1 1 3 4 2 2 1 1 2 5 6 7 5 3 4 5 5 3 3 5 5 4 5 6 8 2 4 6 6 6 7 7 7 6 6 4 5 3 3 3 4 4 7 4 3 5 8 8 7 7 6 6 5 4 4 3 3 3 3 3 3 3 3 3 3 3 2 4 4 5 4 5 6
2 1 2 2 2 2 3 2 2 2 2 1 2 3 1 3 2 4 2 2 3 4 5 10 4 6 4 2 4 2 2 1 4 2 5 4 8 8 4 4 2 3 4 6 6 7 7 5 5 3 3 3 3 3 4 6 5 4 7 8 7 6 6 6 5 5 4 4 3 3 3 3 3 3 3 2 3 3 2 2 4 3 5 5 5
2 3 2 3 3 2 1 3 3 2 2 1 2 2 2 2 3 3 3 3 3 3 2 10 9 2 3 2 1 2 4 3 3 4 4 4 5 10 5 3 5 1 3 3 6 6 7 7 5 3 5 4 5 5 5 5 5 6 5 7 7 6 6 5 5 4 4 4 4 3 3 2 2 3 3 3 3 3 2 2 2 3 4 4 3
3 3 3 2 2 3 5 3 4 3 1 1 3 1 2 1 3 3 3 4 3 5 4 7 11 1 1 3 2 2 1 1 0 2 4 1 3 7 8 7 2 4 1 2 5 1 6 5 6 6 5 4 5 4 3 5 5 4 6 7 7 7 7 5 6 5 4 3 3 3 3 3 2 3 3 4 3 3 3 3 3 2 3 3 2
3 5 3 2 1 1 3 3 2 3 3 3 2 2 2 3 3 2 3 3 2 4 4 5 7 5 1 1 1 2 0 1 0 1 1 2 5 2 5 8 5 3 4 5 4 1 4 6 7 6 7 6 5 5 3 4 5 4 5 6 7 6 7 6 6 7 6 5 5 4 4 4 4 4 4 4 5 4 4 4 4 3 3 2 3
3 3 2 2 2 2 2 4 6 2 3 2 2 3 3 3 3 1 1 2 1 6 5 5 0 4 8 7 2 3 1 1 2 1 1 3 3 2 4 5 6 4 5 3 5 4 4 3 4 5 7 5 4 3 5 4 1 0 3 4 4 2 5 7 7 9 10 8 7 6 5 5 5 5 5 5 5 5 5 5 4 4 4 3 2
3 3 3 2 2 3 2 3 6 7 3 3 3 3 3 3 2 2 2 4 5 9 7 3 1 5 1 5 3 4 4 0 2 2 1 2 2 4 1 4 6 6 6 6 5 6 4 3 2 2 4 6 5 2 1 2 4 2 2 3 4 5 3 3 6 6 12 9 9 8 7 8 7 7 7 6 6 6 6 5 5 5 5 4 4
3 2 2 3 3 3 4 2 3 3 4 4 4 3 3 3 3 2 4 4 8 8 3 2 1 2 2 4 6 5 5 5 4 6 6 3 4 2 3 1 4 7 9 5 4 6 6 5 4 3 4 4 5 5 3 0 1 1 1 4 5 4 5 6 5 7 7 7 9 8 8 8 8 8 8 7 7 7 7 7 7 6 5 5 5
3 3 2 2 2 3 3 4 2 4 1 1 3 4 3 3 3 2 4 5 3 5 6 5 1 4 0 1 3 4 4 4 5 4 2 2 2 1 1 4 4 3 8 8 4 5 5 5 5 5 4 4 4 4 5 5 5 4 2 3 2 4 6 6 6 7 7 7 7 7 7 9 10 10 9 9 8 8 8 8 7 7 6 6 6
3 3 2 3 3 2 2 2 3 3 3 3 1 1 1 0 5 4 2 4 3 1 1 1 1 1 2 2 1 2 2 2 1 5 3 2 0 1 3 4 6 2 4 6 3 1 1 2 3 5 5 5 4 3 2 3 5 5 0 2 3 1 4 6 7 7 7 8 8 8 6 9 10 11 11 10 9 9 9 9 9 8 8 7 7
3 3 3 4 3 2 2 2 2 3 4 3 1 1 1 2 1 1 0 1 2 2 3 4 4 2 2 0 2 1 2 2 1 1 3 2 2 3 1 2 2 3 3 2 4 5 4 4 3 1 1 0 1 0 4 2 4 3 3 2 3 4 4 5 5 7 8 9 9 9 7 7 12 11 11 11 10 10 10 9 9 9 9 8 8
3 4 4 3 2 2 2 2 3 2 3 3 3 2 3 3 3 2 3 1 2 3 2 1 1 3 2 1 2 3 2 1 2 1 2 0 2 2 2 2 3 2 5 4 4 2 3 3 5 5 3 1 2 4 4 4 2 4 5 9 9 8 8 7 7 7 7 8 8 7 7 7 6 9 12 12 11 10 11 11 11 10 10 10 9
4 4 5 4 3 2 1 2 3 2 1 1 1 2 1 1 3 1 3 5 2 4 3 2 1 2 2 2 2 2 2 2 3 1 1 2 1 3 1 3 3 8 6 6 7 3 5 4 4 6 6 7 5 4 6 6 7 5 6 7 11 12 11 10 9 7 7 6 5 5 9 10 12 13 15 12 10 11 12 12 11 11 11 11 10
4 4 4 3 3 2 2 2 3 3 3 3 3 3 2 3 3 2 2 2 1 2 1 2 2 2 1 3 2 2 4 2 1 0 3 3 2 1 4 5 6 4 8 5 3 3 3 6 8 8 7 5 5 6 6 8 9 9 12 12 12 10 9 10 11 10 9 6 5 2 4 7 15 18 15 10 10 11 13 13 12 12 11 11 12
4 4 4 4 4 4 3 4 4 4 3 4 3 3 3 4 4 4 3 3 1 1 3 5 2 2 2 0 1 2 2 5 2 3 2 1 4 4 5 5 5 7 7 7 2 4 6 6 6 7 7 7 7 7 6 7 6 6 6 12 11 10 10 10 9 9 9 8 4 3 3 7 12 13 7 6 9 10 12 13 13 12 12 12 12
5 4 4 4 5 5 5 5 4 4 2 4 3 4 5 5 4 5 4 4 4 4 4 3 1 3 2 1 1 3 3 3 4 3 1 0 2 4 4 4 6 6 5 7 5 5 6 8 8 7 7 8 8 7 7 6 6 6 7 10 11 12 12 11 9 8 9 10 8 5 4 4 9 10 10 11 11 9 11 12 13 13 13 13 14
4 5 4 4 3 4 5 4 3 4 5 5 5 6 6 7 7 6 6 5 4 5 5 3 3 4 1 1 1 4 3 3 3 2 3 2 2 3 2 4 6 6 6 7 8 7 7 7 8 9 9 8 7 7 7 7 6 6 8 13 13 12 11 10 10 11 11 10 11 11 6 5 3 4 5 10 14 14 8 12 13 13 14 15 15
5 4 5 5 4 4 4 5 5 4 5 5 5 6 5 6 6 7 8 7 6 5 5 4 4 4 3 4 4 6 3 5 6 4 3 3 4 6 5 6 7 7 6 6 7 9 9 8 8 7 9 9 8 7 7 7 9 9 14 13 13 12 12 12 12 13 13 11 12 12 12 12 10 6 7 9 9 9 7 14 15 14 15 16 16
5 5 5 5 4 4 5 5 5 5 5 5 5 6 6 6 6 5 6 6 6 6 7 7 6 4 4 3 2 1 1 5 3 3 5 2 6 4 5 5 7 7 6 6 8 8 9 9 9 8 9 8 8 8 8 8 8 11 10 13 14 14 13 12 11 12 13 13 12 14 13 13 13 12 10 9 5 4 2 3 6 6 7 8 7
5 5 5 5 5 4 4 5 5 5 6 6 6 5 6 6 6 7 7 7 7 6 6 7 7 5 4 3 3 4 5 3 4 4 4 3 3 4 6 5 5 6 6 6 6 7 7 7 8 8 8 8 8 8 8 7 6 7 10 12 15 13 11 11 12 12 11 12 13 13 14 14 14 14 13 13 11 11 10 9 8 7 6 6 8
6 6 5 6 5 5 5 6 6 6 6 6 6 6 6 7 7 7 7 6 6 7 7 7 6 7 5 5 5 5 4 4 3 3 4 3 4 5 5 4 4 6 5 6 7 7 8 8 8 8 8 8 7 8 8 8 7 9 10 9 11 12 11 11 11 11 10 11 11 12 13 13 13 14 14 13 12 12 11 10 10 9 8 7 6
7 6 6 6 6 5 6 6 6 6 6 5 5 6 6 7 7 7 6 6 7 7 7 8 7 7 7 5 4 5 5 5 5 7 3 4 2 3 3 5 3 3 5 6 7 7 7 7 7 8 7 6 7 6 6 6 7 10 10 8 7 11 10 10 11 12 11 10 10 10 11 10 10 11 11 10 10 10 11 11 11 10 10 9 8
7 7 6 6 6 6 6 6 6 6 5 5 6 6 6 6 6 6 6 5 6 7 6 7 7 7 7 6 6 6 5 6 5 5 6 3 3 2 2 4 3 6 2 5 5 7 5 6 7 7 7 6 6 6 9 9 6 8 4 6 5 6 8 9 10 10 10 9 9 9 9 10 10 10 11 11 12 11 11 10 10 10 10 11 11
7 7 7 7 6 6 6 6 6 6 6 6 6 6 6 6 6 6 6 6 6 6 5 6 6 6 5 6 6 6 6 5 6 5 4 4 3 3 4 3 5 2 3 3 4 4 5 5 5 6 6 6 5 5 4 5 4 4 5 5 5 5 5 8 9 9 9 8 8 7 8 8 9 9 9 10 10 10 10 9 9 8 8 9 10
6 7 7 7 6 6 6 6 6 5 6 6 6 6 6 6 6 6 6 5 5 5 5 6 5 5 6 6 6 6 6 6 5 5 4 4 4 3 2 1 2 7 3 4 6 4 4 3 5 5 5 6 5 5 5 5 4 6 6 6 5 5 6 7 9 9 8 8 8 8 7 7 7 8 9 9 9 9 9 9 8 8 9 9 8
7 8 8 8 7 6 6 6 6 6 6 6 5 6 6 6 6 5 5 5 5 5 5 5 5 5 5 5 5 5 4 5 5 5 5 5 3 3 3 4 5 5 6 5 5 4 3 4 3 4 4 4 4 4 4 4 2 4 2 4 6 10 9 6 8 9 9 7 7 7 7 6 6 7 7 8 9 9 9 9 9 9 9 8 7
7 8 8 8 8 7 7 6 6 6 6 5 5 5 5 5 5 5 5 4 5 4 4 3 4 3 4 6 6 5 5 3 4 4 4 5 5 5 3 3 4 3 4 5 6 6 4 4 3 3 4 2 2 5 5 5 4 8 3 2 7 11 7 6 7 9 8 7 5 4 4 5 5 5 5 5 6 7 7 7 7 7 6 5 6
8 8 8 9 8 8 8 7 7 6 6 5 5 5 4 4 4 4 4 4 4 4 4 3 3 4 4 4 4 4 4 4 3 3 4 3 3 4 4 3 4 3 3 4 5 5 3 2 1 3 2 2 3 3 4 2 2 4 2 3 4 6 6 7 6 8 8 7 6 2 1 2 3 4 4 4 5 5 5 6 6 7 6 6 6
8 8 9 8 8 9 8 8 7 7 6 6 5 4 5 5 5 3 3 2 4 4 1 3 4 3 2 4 5 5 5 4 6 5 3 1 1 3 5 4 5 3 4 4 4 4 4 2 2 3 3 2 1 3 3 2 1 3 1 3 5 3 1 2 7 5 9 8 7 2 2 3 3 4 5 5 5 6 5 6 6 6 7 7 6
8 8 8 8 8 9 8 8 8 7 7 7 5 5 5 5 5 4 2 3 3 3 3 2 3 4 2 2 3 3 1 3 3 4 4 5 5 5 4 5 5 5 5 5 0 3 2 3 1 3 3 3 4 2 3 3 2 3 3 1 4 3 2 1 1 6 8 8 6 4 5 5 6 6 7 7 6 6 6 6 6 6 6 6 6
7 7 8 8 8 8 8 8 8 8 8 7 7 6 7 6 5 5 4 3 3 3 2 3 3 3 3 2 3 1 2 1 2 2 2 2 2 4 2 4 3 4 3 1 3 3 2 1 1 1 5 1 2 2 1 3 3 3 1 2 2 3 2 3 6 1 8 10 8 7 7 8 8 8 8 8 7 6 6 6 6 6 6 5 5
7 7 7 8 8 8 7 8 9 8 8 8 8 7 6 6 6 5 6 5 4 3 2 1 1 1 3 3 3 4 1 1 2 3 4 3 5 1 2 2 3 3 2 4 3 1 2 1 2 4 3 1 3 4 3 5 3 3 1 3 6 5 1 3 4 3 11 10 9 9 10 12 11 10 10 10 9 7 8 8 7 7 6 6 5
8 7 8 7 7 8 9 9 9 9 8 8 8 7 8 7 7 6 5 6 5 4 4 4 5 3 2 2 1 1 3 2 1 2 2 2 3 6 7 9 8 4 4 3 2 3 5 0 2 2 2 4 4 1 4 4 3 5 4 5 6 7 8 7 5 6 5 3 3 6 9 11 14 14 12 13 13 11 8 8 8 7 7 4 3
8 7 8 8 7 9 9 9 8 8 8 8 7 7 7 7 7 7 5 6 6 5 5 6 6 6 6 5 3 2 3 3 2 2 3 2 4 4 5 5 6 6 4 5 4 1 3 4 2 2 3 3 2 6 1 2 4 6 6 6 6 6 6 6 7 7 6 4 4 8 8 9 7 6 12 16 15 13 11 10 10 10 7 4 4
8 9 9 9 8 8 7 7 6 6 6 7 7 7 7 7 6 6 7 5 7 7 6 7 7 7 7 6 6 6 6 6 4 5 4 3 2 2 1 2 2 2 3 4 4 4 4 3 4 3 3 3 3 6 2 4 5 5 6 7 8 7 7 7 8 8 8 5 5 6 6 9 11 13 14 13 14 12 12 11 12 10 6 7 5
5 8 9 8 8 9 8 7 7 7 7 6 6 7 7 6 7 8 7 7 6 8 8 7 8 8 7 7 7 7 7 6 4 5 4 3 3 3 3 3 3 4 6 5 4 4 5 5 4 4 4 4 3 2 4 4 5 6 7 8 8 8 8 8 7 8 7 6 6 7 7 7 9 9 7 8 4 12 11 14 10 12 10 7 6
5 8 7 8 7 9 9 8 8 7 6 6 3 4 3 3 7 7 8 8 8 8 9 9 3 6 8 7 6 6 10 10 8 6 7 5 2 3 2 3 6 6 5 4 4 5 6 5 5 6 5 5 5 3 3 3 4 5 7 8 8 8 8 8 7 6 8 6 6 8 8 8 9 9 8 8 1 9 6 8 6 7 9 8 6
3 5 10 8 7 4 5 7 8 7 1 7 11 2 1 4 5 8 7 8 10 10 7 8 9 11 8 6 6 9 10 9 9 10 9 7 5 2 6 6 7 3 3 4 5 5 5 5 4 5 5 5 4 6 5 6 4 5 6 7 8 8 8 9 10 8 6 6 8 10 10 9 9 9 8 8 7 6 7 1 13 12 12 12 9
3 1 1 4 3 2 3 4 5 4 2 5 12 5 5 6 7 6 5 4 7 7 8 4 8 4 6 6 5 6 6 7 8 8 7 7 6 7 8 7 7 8 8 5 4 4 2 3 5 4 4 5 6 5 6 4 4 5 7 7 7 8 9 9 9 10 7 8 10 10 11 9 7 8 9 8 7 6 6 6 10 10 8 4 3
4 6 8 8 6 5 5 6 4 2 3 7 6 5 5 6 8 4 1 2 4 5 9 9 7 5 5 5 6 5 4 6 5 6 8 7 7 8 8 8 8 7 7 8 6 4 3 3 3 3 3 3 4 3 6 4 4 6 6 7 7 8 8 9 9 10 10 9 9 9 10 8 8 8 8 7 8 8 8 7 12 8 6 8 8
8 8 8 8 7 7 7 6 5 5 4 8 6 6 7 6 6 1 2 3 2 7 9 8 5 1 2 3 3 5 6 7 6 6 6 8 7 6 6 6 4 5 6 6 4 5 4 3 3 3 3 2 2 3 3 2 4 5 6 7 7 8 9 9 11 11 11 9 9 9 10 8 7 8 9 9 8 8 8 4 9 10 12 11 12
6 6 7 7 6 6 7 7 7 7 3 7 3 5 6 6 4 2 5 3 5 9 6 3 2 2 2 3 4 6 8 6 5 5 7 7 7 7 8 7 6 5 5 4 2 1 2 2 2 2 2 3 2 2 2 3 3 5 5 8 9 9 10 11 11 11 10 8 9 9 10 8 8 9 9 9 9 9 9 10 7 11 12 12 12
5 6 7 7 8 7 7 7 7 5 4 8 6 3 4 5 3 4 8 8 10 3 2 3 3 3 2 2 3 3 4 5 9 9 5 7 7 8 8 7 6 5 5 5 3 5 6 5 5 5 5 4 5 5 4 4 5 5 7 7 8 9 10 9 9 8 9 8 9 9 9 9 7 10 9 9 9 10 10 9 13 8 13 13 11
5 5 6 6 6 7 7 6 6 6 4 8 11 8 7 6 4 6 7 6 4 4 4 3 4 6 6 7 6 2 6 7 6 9 6 5 7 7 7 7 5 4 4 3 3 4 5 7 6 6 5 4 3 3 2 1 2 4 6 7 7 7 8 10 10 9 9 8 7 8 10 11 9 9 10 9 10 10 10 11 10 11 8 10 12
6 6 6 6 6 6 7 6 6 6 5 5 8 10 10 10 9 6 6 6 5 5 4 3 5 6 8 13 10 3 7 5 5 7 5 4 6 7 7 6 6 5 5 5 3 2 3 3 3 4 5 5 5 4 5 4 2 2 4 6 7 8 8 8 9 9 9 9 9 8 8 8 9 9 10 10 11 9 10 9 10 3 10 11 15
5 5 6 6 6 6 6 7 9 8 5 6 8 8 10 10 8 5 7 6 5 4 4 4 5 5 6 9 12 11 9 7 8 8 6 4 4 8 7 6 6 7 7 7 5 4 4 4 5 4 5 6 6 6 7 11 8 7 5 6 7 7 7 8 8 9 9 7 7 10 9 8 9 9 10 11 11 9 8 10 9 10 9 8 7
Wind_Direction
49 123 152 158 157 147 173 157 209 296 297 273 278 262 255 251 257 245 240 210 203 206 206 180 204 215 209 191 185 191 196 183 173 225 121 161 149 152 160 165 165 168 171 166 158 165 179 159 152 152 160 146 148 149 148 146 136 137 130 128 125 119 126 121 112 103 103 102 101 87 68 74 82 93 85 78 75 64 80 79 75 65 56 60 59
148 159 225 156 141 131 141 158 158 156 354 260 246 296 310 322 308 292 307 249 209 195 209 212 201 196 218 193 183 197 179 196 204 162 128 160 130 141 162 161 158 149 165 165 166 161 183 171 152 160 157 139 164 171 154 153 147 139 137 139 133 136 130 135 125 114 109 116 116 112 102 86 93 88 89 76 72 63 53 56 68 78 71 64 70
135 146 172 158 133 214 126 148 142 136 180 244 245 258 269 274 291 292 271 267 212 177 205 228 213 173 203 219 163 214 165 210 205 177 113 156 125 146 156 166 166 163 151 117 124 161 184 176 165 157 158 160 162 151 164 153 165 155 145 143 149 147 152 145 146 140 141 137 126 122 121 98 88 92 76 77 81 76 65 69 72 73 85 86 74
132 183 193 170 180 170 169 206 139 133 128 137 181 110 280 304 294 291 325 324 321 208 191 234 225 167 207 211 151 202 182 176 212 194 120 117 140 149 147 169 173 166 158 138 105 105 176 176 157 160 172 162 145 152 159 169 163 156 153 155 155 164 162 161 166 164 169 170 147 143 140 130 105 94 87 66 75 70 70 67 63 63 63 62 81
168 151 124 195 192 167 172 154 108 114 97 112 67 167 292 284 278 319 12 349 321 333 316 264 243 236 182 188 180 191 172 189 190 179 148 156 140 131 171 167 166 172 162 152 136 124 71 41 140 180 174 172 160 158 162 186 170 160 171 169 165 169 178 174 177 186 191 191 176 164 147 149 128 106 99 87 67 91 87 82 72 69 72 76 76
177 169 191 198 194 178 125 124 133 127 102 14 207 200 189 236 239 271 263 207 290 271 294 270 229 203 217 190 191 179 194 181 169 168 184 147 140 166 179 163 158 172 175 162 144 128 107 101 131 140 135 157 180 192 160 173 188 169 175 172 173 180 181 187 189 189 201 207 200 193 176 158 157 141 124 126 105 88 71 76 75 67 64 62 52
207 193 158 218 180 185 130 118 134 101 107 239 250 115 329 256 240 290 287 263 230 252 277 276 218 198 173 275 157 173 238 275 118 184 166 183 131 166 148 143 100 196 166 164 152 138 126 117 137 122 132 134 165 179 189 175 173 185 171 179 179 190 195 191 198 199 202 214 217 213 211 175 170 173 159 142 142 124 115 102 99 91 71 63 52
154 150 184 193 184 132 172 129 133 133 140 174 263 247 191 255 293 277 294 288 296 304 348 306 280 168 144 213 95 151 190 206 176 208 184 173 167 127 146 114 121 5 257 178 156 149 140 134 110 142 157 161 178 186 193 188 184 186 195 178 198 193 202 204 211 222 214 218 227 229 229 211 193 189 185 175 163 166 159 145 109 93 97 86 87
147 135 158 187 185 154 139 170 150 132 119 228 203 267 276 274 277 262 293 299 344 323 325 279 278 86 291 204 151 223 236 115 109 278 28 20 57 95 117 127 107 154 55 56 47 135 145 140 136 151 177 173 184 208 176 196 196 159 181 185 194 193 200 209 204 217 237 242 244 249 238 239 222 222 202 202 191 191 188 182 137 123 111 128 123
142 141 163 186 152 76 102 102 115 118 174 198 197 183 215 254 246 277 283 270 304 283 252 229 271 316 174 193 359 206 168 199 328 354 285 226 86 127 92 113 154 191 115 92 121 200 192 157 162 174 170 173 182 189 193 198 211 212 183 198 195 195 201 210 208 204 222 228 223 224 235 237 232 237 227 217 213 214 205 195 175 162 160 161 150
134 130 139 163 124 107 204 130 88 278 198 184 197 185 206 232 251 264 284 283 181 259 273 268 344 67 339 331 294 316 261 65 308 275 325 7 44 82 119 108 120 128 94 127 146 183 184 182 187 197 162 143 160 204 199 178 204 304 339 312 299 207 222 219 223 196 206 207 215 217 207 212 228 234 238 233 233 229 223 212 193 188 174 199 162
121 132 146 162 151 157 125 159 177 180 147 180 191 196 194 223 234 232 295 310 253 242 226 252 105 54 306 293 330 271 327 89 323 250 78 54 27 23 339 142 139 119 121 182 179 161 172 187 168 132 150 157 158 114 357 42 63 71 169 250 268 269 284 268 255 232 197 210 212 210 203 198 211 216 226 231 232 234 229 220 212 202 188 196 202
96 119 127 126 149 145 136 175 120 88 193 170 187 205 181 189 185 177 185 225 249 222 220 277 222 89 353 355 327 14 289 21 328 21 31 6 329 27 331 294 113 129 142 181 187 144 160 182 154 170 161 156 183 201 226 25 19 91 183 195 216 244 270 277 289 307 310 234 220 219 204 198 203 209 222 235 234 227 227 220 215 211 202 199 208
87 80 82 76 87 123 123 108 117 118 112 247 159 191 205 222 179 173 230 217 287 348 358 302 227 49 249 228 309 344 347 25 63 299 40 52 23 37 200 259 22 44 135 153 162 165 178 161 154 167 170 171 166 180 168 174 175 197 201 199 215 232 236 253 259 269 264 286 286 244 209 205 201 203 212 227 236 235 230 231 218 217 214 207 211
92 94 104 86 73 63 84 119 116 142 162 135 221 143 95 93 239 202 187 245 156 276 193 359 4 136 159 155 12 3 333 8 45 32 333 22 27 276 340 352 63 0 330 90 106 30 275 209 164 180 177 185 192 164 129 111 88 105 282 339 356 307 229 236 250 247 250 256 256 260 239 205 198 200 205 214 227 235 236 235 229 219 219 214 210
99 104 66 67 36 50 96 98 122 112 132 144 154 189 217 229 298 107 183 222 177 214 229 172 215 236 216 160 114 98 263 244 67 327 308 335 301 37 344 85 36 88 82 40 121 136 222 195 180 137 32 333 283 101 125 111 101 151 112 46 34 358 328 324 296 266 247 246 251 255 254 224 201 202 208 214 219 228 233 232 234 227 219 222 217
71 54 57 54 40 47 49 101 106 124 128 146 175 168 196 182 195 184 182 309 228 189 238 12 284 299 308 274 155 156 232 158 177 119 348 94 21 20 347 33 104 41 72 15 57 82 123 118 113 126 131 185 68 81 86 84 101 59 99 49 30 28 29 9 344 328 296 272 261 267 285 288 269 231 217 215 219 224 232 235 230 228 225 222 222
102 69 68 55 60 63 27 113 119 114 100 41 86 140 84 199 148 235 154 205 206 253 120 301 260 256 240 221 144 155 165 152 214 157 222 103 355 40 331 83 38 62 74 56 43 47 12 52 43 43 43 54 78 66 69 71 65 54 50 49 47 42 38 26 15 356 324 323 295 273 258 272 257 246 234 218 208 215 227 234 231 230 229 224 223
82 97 78 67 56 46 79 68 97 111 96 65 47 28 44 35 44 292 43 38 324 357 200 78 257 212 265 74 28 1 315 141 284 185 159 68 40 38 56 44 63 88 89 77 69 59 75 68 66 68 68 55 56 46 68 85 80 69 58 59 55 47 44 40 30 16 5 358 350 319 283 239 246 242 240 231 219 216 222 229 234 234 233 230 230
109 112 126 98 69 70 61 51 57 56 64 75 56 50 31 56 37 38 30 24 341 329 98 166 240 120 117 154 349 214 209 254 214 243 61 99 126 98 76 68 86 72 73 86 144 92 81 69 78 86 87 80 78 72 62 61 56 54 46 46 50 47 45 41 34 24 14 13 9 359 268 241 250 263 265 254 244 229 220 228 232 236 239 238 236
90 72 70 107 118 79 59 59 43 67 88 97 68 56 57 51 46 46 42 40 25 12 24 7 1 76 173 168 200 217 239 219 230 331 76 164 96 73 87 105 95 89 87 108 102 111 94 114 117 102 91 88 83 81 73 68 62 55 45 47 49 47 44 43 38 37 29 20 22 16 323 286 270 258 249 255 253 252 253 251 243 232 231 239 238
91 77 69 58 69 105 85 70 69 49 53 57 75 70 54 52 42 40 35 43 36 28 31 11 31 150 101 210 127 282 277 183 171 202 155 170 118 145 206 116 89 89 104 106 106 99 95 85 90 93 96 94 88 77 63 58 52 50 38 39 47 50 49 43 41 37 36 33 26 48 52 42 343 332 277 251 246 245 239 266 270 261 253 243 239
103 88 71 73 50 78 97 87 74 61 56 65 64 71 76 64 57 53 45 41 38 42 47 43 42 29 34 52 33 348 332 28 348 85 216 158 173 194 176 111 104 104 78 85 103 102 101 93 86 88 86 86 88 85 78 73 70 66 53 47 48 49 47 42 40 38 32 27 30 39 51 54 54 50 59 64 54 57 226 249 260 266 265 264 262
108 97 85 95 100 92 84 81 70 71 70 59 66 75 70 71 60 54 60 56 48 52 42 39 35 57 41 46 78 168 157 59 228 29 344 137 141 120 103 114 102 95 108 94 89 92 89 96 98 97 95 102 103 104 101 87 78 76 67 52 52 48 51 53 47 47 43 38 32 34 42 51 54 55 47 47 72 121 167 2 15 12 315 323 343
110 100 99 101 94 80 80 85 85 69 70 79 69 67 80 66 70 72 57 54 54 50 53 47 40 44 51 59 49 36 27 52 52 98 233 339 29 101 97 101 112 120 120 126 98 83 79 73 77 81 95 94 88 78 76 76 76 82 84 57 50 49 48 55 57 52 48 44 42 37 37 39 45 50 52 50 48 54 57 51 38 36 34 16 17
122 115 115 103 93 92 85 82 87 93 85 73 60 44 61 85 68 58 62 60 53 55 54 50 41 35 26 42 34 46 46 28 38 79 48 24 53 65 85 91 133 124 134 123 116 100 87 82 82 83 82 84 92 102 100 101 98 89 81 81 54 45 48 51 54 53 50 50 43 39 39 38 39 43 45 45 46 50 46 42 46 39 34 24 25
123 117 109 103 104 99 94 92 89 87 88 92 86 69 63 71 69 63 64 59 53 58 52 47 49 41 28 27 73 57 27 42 30 4 87 90 123 141 147 133 45 45 90 81 86 72 92 74 78 88 87 92 86 89 94 92 120 136 126 90 80 54 45 47 49 51 49 46 44 41 37 35 35 34 33 36 35 33 40 40 33 29 26 27 26
128 128 123 116 115 117 111 99 97 97 94 89 88 82 73 76 75 70 73 69 67 61 64 61 49 45 35 30 43 46 35 24 38 38 25 34 84 88 24 8 148 120 130 89 68 82 86 103 84 76 96 98 104 101 136 125 121 197 175 93 93 77 57 61 56 52 48 45 43 42 37 34 30 30 27 27 25 26 28 28 24 25 23 20 16
135 131 131 130 126 114 107 104 100 97 97 97 97 94 87 85 86 80 72 66 69 68 62 65 60 47 45 28 36 48 46 48 31 36 33 3 34 24 340 13 336 79 133 133 97 106 68 42 94 86 75 85 90 97 95 67 86 289 102 106 103 100 93 84 72 63 54 47 45 39 36 31 28 23 29 26 24 24 19 17 17 15 17 19 17
144 139 134 134 127 122 114 109 107 104 97 91 92 97 97 87 85 83 79 84 81 74 72 69 58 56 43 40 41 50 33 32 51 34 45 30 22 33 16 21 2 346 302 109 104 64 98 65 58 96 102 114 128 125 125 113 27 333 105 117 119 113 121 104 99 87 71 58 45 41 35 31 20 16 17 16 15 13 12 4 2 6 10 15 12
153 148 144 141 141 129 123 119 115 110 107 107 110 102 101 100 99 96 87 81 78 80 74 62 62 59 51 46 52 56 48 48 34 41 29 12 360 99 47 21 39 351 355 101 136 79 42 88 60 50 74 76 79 81 75 85 80 326 121 135 124 134 147 121 120 109 94 75 56 37 37 28 19 10 9 9 3 2 2 356 356 2 360 359 3
160 159 153 147 147 146 140 132 130 126 125 121 111 115 110 110 104 98 108 120 107 99 86 71 86 91 83 67 43 34 11 43 63 43 59 37 13 34 58 62 72 14 8 26 80 103 65 91 103 120 106 83 121 131 137 134 133 256 167 128 127 154 180 137 143 124 115 103 90 58 36 29 12 12 7 358 349 343 348 346 350 354 353 343 348
167 170 160 155 155 155 151 152 142 137 133 130 127 119 118 105 93 102 118 110 119 98 92 106 88 50 53 75 73 59 33 22 42 64 34 47 56 41 40 63 63 36 10 78 95 107 103 73 128 81 57 258 119 33 82 87 164 168 157 80 162 202 207 158 143 134 129 121 110 95 41 354 348 343 343 339 334 329 329 334 339 343 344 349 350
180 173 167 162 159 162 162 157 153 148 149 140 142 134 120 124 121 118 113 123 77 87 90 81 67 60 35 38 57 40 18 23 343 331 97 285 110 80 49 29 70 51 357 63 82 103 114 163 139 130 132 298 106 104 61 30 51 310 237 151 183 198 74 330 143 140 148 133 125 133 285 271 286 290 301 314 312 319 318 322 325 332 337 340 346
182 180 167 168 169 166 165 163 161 159 157 151 153 148 135 142 149 139 129 113 125 134 153 158 154 100 91 93 97 73 48 32 355 26 3 355 11 62 34 34 38 19 28 25 81 106 136 119 177 171 94 45 328 83 120 111 8 328 277 60 330 343 0 341 318 137 167 145 161 181 250 265 262 267 278 284 294 302 308 308 311 317 323 326 336
185 185 167 179 174 173 169 170 166 167 163 160 164 163 163 156 156 160 156 148 161 173 181 194 152 153 144 130 111 128 84 103 10 40 17 55 335 60 121 90 58 57 38 358 0 76 89 130 236 312 109 153 195 201 208 200 186 224 357 323 254 307 334 339 331 143 164 172 165 188 223 248 249 249 253 269 276 269 279 292 293 300 301 305 315
182 188 175 191 180 182 179 179 173 176 169 173 171 171 161 169 167 160 179 171 176 189 190 154 67 165 146 196 160 134 171 103 129 265 79 351 354 58 321 4 134 60 15 351 17 354 212 92 51 13 330 203 31 358 350 343 348 317 285 19 353 335 289 314 308 358 155 174 169 199 216 231 241 234 238 245 248 249 253 261 277 275 284 292 310
186 184 192 192 195 191 191 195 186 188 185 184 182 175 172 176 174 166 185 174 185 199 185 202 196 186 202 228 191 123 142 180 78 90 54 76 43 29 40 14 22 63 9 3 309 15 309 130 204 190 155 353 295 69 353 349 350 333 349 354 340 337 344 332 327 312 301 211 223 201 218 236 233 233 235 230 235 236 240 242 244 255 262 272 304
193 194 194 202 198 212 201 210 206 197 195 187 192 190 177 181 182 182 186 190 196 205 208 208 202 193 200 198 191 170 172 174 152 98 100 72 66 60 36 32 10 13 358 323 330 329 299 312 290 335 308 159 134 316 324 347 290 303 335 348 326 336 332 325 317 314 295 270 220 227 253 280 299 254 218 222 228 216 219 228 239 242 245 232 260
206 206 210 213 210 221 221 215 215 207 209 199 198 188 197 186 191 196 194 200 215 209 219 222 203 202 204 199 194 198 192 194 185 176 153 153 133 143 91 64 50 342 300 272 272 276 256 252 299 327 280 329 301 186 245 319 325 330 350 333 324 328 325 328 311 310 311 299 295 307 242 228 238 240 246 242 230 214 215 229 235 230 203 194 220
257 221 219 220 214 217 220 222 216 219 214 204 205 199 206 199 200 206 211 202 209 223 209 212 215 203 206 199 202 206 189 159 134 43 107 131 171 169 184 197 200 220 242 259 265 252 265 279 260 248 235 227 247 341 312 308 336 337 325 318 316 316 322 314 317 315 319 323 311 309 304 314 307 308 307 298 233 194 214 227 233 209 183 189 219
313 319 280 230 226 225 223 217 227 224 208 209 130 107 33 247 210 216 212 214 211 219 217 217 191 249 213 205 201 159 120 138 140 125 116 112 1 6 12 210 206 223 237 247 265 275 283 285 278 274 277 292 313 13 1 331 327 305 309 319 312 321 314 312 310 318 325 322 322 303 304 309 307 304 292 283 238 173 231 221 217 158 168 193 209
326 316 306 275 252 326 332 269 224 230 231 25 345 63 262 317 266 224 222 216 224 220 209 226 205 200 200 216 207 153 151 150 155 153 149 141 195 2 66 51 34 352 228 234 251 280 315 293 296 332 298 303 309 314 302 293 310 345 331 318 311 314 321 320 316 317 310 338 316 313 303 306 301 293 293 291 289 264 266 335 115 144 172 194 200
195 173 201 288 341 209 218 295 330 53 101 182 223 178 231 262 271 275 263 328 339 334 329 296 259 202 214 184 113 145 188 193 181 163 162 161 132 101 78 67 64 52 48 60 344 301 272 293 302 296 320 292 293 295 304 19 21 336 320 309 306 317 317 313 307 305 318 323 311 303 297 298 297 299 292 285 284 280 279 141 167 186 210 218 240
174 209 233 212 196 207 219 231 220 210 178 179 191 194 216 253 272 301 295 113 196 227 234 240 240 215 196 170 166 151 173 126 184 191 185 154 114 112 118 102 72 67 71 58 50 16 359 319 303 304 278 8 328 359 49 11 5 308 304 305 316 316 310 302 300 305 308 313 297 286 291 302 300 288 290 300 303 293 286 207 205 227 212 205 219
202 192 195 206 201 200 216 220 220 216 216 143 172 185 213 224 253 298 257 198 238 236 230 228 233 187 169 186 158 166 143 166 187 206 189 161 156 155 163 176 149 112 91 89 76 57 21 322 308 293 333 23 345 24 37 42 312 314 310 307 315 307 302 296 300 292 288 286 277 285 284 288 290 300 296 295 295 295 283 273 174 206 204 211 217
209 204 202 207 206 210 209 220 231 230 81 110 160 192 217 225 226 179 229 221 243 220 211 153 161 162 148 202 185 188 162 173 189 190 179 153 169 174 182 192 172 174 175 167 129 79 173 230 266 307 33 38 28 36 17 351 337 312 311 303 301 293 287 283 275 264 266 266 274 275 279 288 297 294 294 301 303 298 298 296 219 205 207 208 215
225 221 220 218 216 216 216 221 220 194 136 145 128 217 233 223 235 222 211 202 226 183 149 148 170 145 145 150 198 190 174 143 87 77 88 155 175 179 179 179 172 158 89 53 32 36 27 24 32 34 41 42 26 29 25 351 315 308 305 299 290 284 284 287 290 300 296 296 291 289 287 287 296 296 297 299 301 295 297 291 300 239 207 210 211
219 221 216 214 217 218 215 210 209 202 170 182 148 175 222 219 204 234 231 216 198 166 131 143 107 66 41 14 348 134 97 91 59 92 102 151 185 176 175 168 161 166 135 118 80 63 68 79 90 91 94 100 88 104 85 15 339 344 308 297 286 301 306 296 294 296 295 304 302 299 295 292 292 289 296 297 292 297 295 293 282 281 191 195 208
215 208 210 212 204 206 205 197 190 186 182 178 179 177 201 202 212 233 233 214 175 167 147 129 94 84 54 33 8 65 99 92 83 89 114 201 183 169 168 182 184 203 150 151 160 149 137 159 153 160 176 185 188 199 216 203 176 280 300 295 312 311 294 291 294 302 308 308 298 296 294 294 308 306 302 304 304 291 291 297 309 312 164 201 212
231 211 212 213 207 196 191 199 175 191 164 169 187 196 208 208 210 246 241 211 161 182 171 151 114 102 84 54 41 52 72 85 72 72 44 350 245 186 193 201 216 217 176 157 172 184 194 207 205 197 223 206 214 222 216 196 191 210 249 269 290 286 291 302 306 306 298 296 313 348 317 307 308 309 314 306 296 300 299 296 297 300 299 294 268